Location: Newark
(46.3150°N, 5.9081°E)
Time: 05:03:56
(UTC+00:00)

N. Korean satellite - Visible Passes

Search period start: 19 September 2019 00:00
Search period end: 29 September 2019 00:00
Orbit: 455 x 509 km, 97.2° (Epoch: 18 September)

Date Brightness Start Highest point End Pass type
(mag) Time Alt. Az. Time Alt. Az. Time Alt. Az.
21 Sep 10.0 04:35:47 10° ENE 04:37:31 13° E 04:39:15 10° ESE visible
24 Sep 9.6 04:52:39 10° NE 04:55:21 21° E 04:58:03 10° SE visible
25 Sep 10.3 04:28:57 10° ENE 04:29:55 11° E 04:30:53 10° ESE visible
28 Sep 9.8 04:45:20 10° NE 04:47:45 18° E 04:50:10 10° SE visible
